Location: Recife
(8.0585°S, 34.8848°W)
Time: 10:43:39
(UTC-03:00)

Transit 2A - Pass Details

Date: 14 April 2026
Orbit: 594 x 950 km, 66.7° (Epoch: 14 May)

Event Time Altitude Azimuth Distance (km) Brightness Sun altitude
Rises 09:47:12 0° 320° (NW) 2,907 9.0 61.0°
Reaches altitude 10° 09:49:45 10° 308° (NW) 1,968 8.2 61.5°
Maximum altitude 09:53:30 28° 249° (WSW) 1,142 7.0 62.2°
Drops below altitude 10° 09:57:11 10° 189° (S) 1,930 8.0 62.9°
Sets 09:59:41 0° 177° (S) 2,839 8.8 63.4°
